HIMAWARI-8

Last updated on Jan. 26, 2021, 7:57 a.m. UTC

1 40267U 14060A   21025.81988682 -.00000264  00000-0  00000-0 0  9993
2 40267   0.0624 228.4708 0001430  83.2848 249.3732  1.00271045 23022
UTC
Height (km)
Latitude
Longitude
Inclination
Orbital Period
UTC large
Height (km)
Speed (km/s)
/
Latitude / Longitude
Inclination (degrees)
Orbital Period (minutes)
Azimuth
Elevation
Range (km)
Doppler Factor
iOS Compass Heading
iOS Angle

Next 30 passes for location: Hong Kong

Rise time Rise Azimuth (degrees) Set time Set Azimuth (degrees) Duration Max altitude (degrees)

No matching passes for this satellites